Location: Ailly
(50.0793°N, 1.9944°E)
Time: 11:36:54
(UTC+00:00)

Okean 2 - Pass Details

Date: 15 January 2026
Orbit: 515 x 525 km, 82.5° (Epoch: 15 February)

Event Time Altitude Azimuth Distance (km) Brightness Sun altitude
Exits shadow 06:04:11 25° 250° (WSW) 1,076 4.3 -15.6°
Drops below altitude 10° 06:06:40 10° 212° (SSW) 1,740 5.7 -15.2°
Sets 06:09:00 0° 200° (SSW) 2,622 6.7 -14.9°
